Location: Juzet
(42.9779°N, 0.7597°E)
Time: 02:37:21
(UTC+00:00)

Okean 3 - Pass Details

Date: 14 July 2020
Orbit: 576 x 601 km, 82.5° (Epoch: 04 August)

Event Time Altitude Azimuth Distance (km) Brightness Sun altitude
Rises 01:51:00 0° 353° (N) 2,803 7.8 -20.8°
Reaches altitude 10° 01:53:12 10° 355° (N) 1,901 6.9 -20.6°
Maximum altitude 01:57:24 74° 82° (E) 608 3.5 -20.2°
Enters shadow 01:58:48 40° 157° (SSE) 859 4.0 -20.1°
